"Sample Date","Sample Time","Sample Value","Units","Flow Rate","Number Channels","Micron Size 0","Counts/Channel 0","Micron Size 1","Counts/Channel 1","Micron Size 2","Counts/Channel 2","Micron Size 3","Counts/Channel 3","Micron Size 4","Counts/Channel 4","Micron Size 5","Counts/Channel 5","Micron Size 6","Counts/Channel 6","Micron Size 7","Counts/Channel 7","Micron Size 8","Counts/Channel 8","Micron Size 9","Counts/Channel 9","Micron Size 10","Counts/Channel 10","Micron Size 11","Counts/Channel 11","Micron Size 12","Counts/Channel 12","Micron Size 13","Counts/Channel 13","Micron Size 14","Counts/Channel 14","Micron Size 15","Counts/Channel 15","Micron Size 16","Counts/Channel 16","Micron Size 17","Counts/Channel 17","Micron Size 18","Counts/Channel 18","Micron Size 19","Counts/Channel 19","Micron Size 20","Counts/Channel 20","Micron Size 21","Counts/Channel 21","Micron Size 22","Counts/Channel 22","Micron Size 23","Counts/Channel 23","Micron Size 24","Counts/Channel 24","Micron Size 25","Counts/Channel 25","Micron Size 26","Counts/Channel 26","Micron Size 27","Counts/Channel 27","Micron Size 28","Counts/Channel 28","Micron Size 29","Counts/Channel 29","Micron Size 30","Counts/Channel 30","Micron Size 31","Counts/Channel 31"
"05/12/08","07:00:04",11581.000,"cc",28343.885,6,0.100,9944.000,0.200,1533.000,0.300,95.000,0.500,9.000,1.000,0,5.000,0
"05/12/08","07:00:10",8630.000,"cc",28329.578,6,0.100,7313.000,0.200,1219.000,0.300,93.000,0.500,5.000,1.000,0,5.000,0
"05/12/08","07:00:16",9720.000,"cc",28306.147,6,0.100,8296.000,0.200,1353.000,0.300,63.000,0.500,7.000,1.000,1.000,5.000,0
"05/12/08","07:00:22",9450.000,"cc",28330.039,6,0.100,8066.000,0.200,1300.000,0.300,79.000,0.500,5.000,1.000,0,5.000,0
"05/12/08","07:00:28",8215.000,"cc",28302.545,6,0.100,6982.000,0.200,1141.000,0.300,86.000,0.500,5.000,1.000,1.000,5.000,0
"05/12/08","07:00:34",10044.000,"cc",28342.895,6,0.100,8598.000,0.200,1357.000,0.300,78.000,0.500,11.000,1.000,0,5.000,0
"05/12/08","07:00:40",12750.000,"cc",28287.984,6,0.100,10931.000,0.200,1727.000,0.300,84.000,0.500,8.000,1.000,0,5.000,0
"05/12/08","07:00:46",9704.000,"cc",28303.389,6,0.100,8289.000,0.200,1335.000,0.300,71.000,0.500,7.000,1.000,2.000,5.000,0
"05/12/08","07:00:52",13770.000,"cc",28325.662,6,0.100,11785.000,0.200,1850.000,0.300,125.000,0.500,10.000,1.000,0,5.000,0
"05/12/08","07:00:58",14978.000,"cc",28293.984,6,0.100,12809.000,0.200,2023.000,0.300,128.000,0.500,17.000,1.000,1.000,5.000,0
"05/12/08","07:01:04",14309.000,"cc",28328.447,6,0.100,12274.000,0.200,1922.000,0.300,102.000,0.500,11.000,1.000,0,5.000,0
"05/12/08","07:01:10",8828.000,"cc",28320.045,6,0.100,7503.000,0.200,1242.000,0.300,76.000,0.500,7.000,1.000,0,5.000,0
"05/12/08","07:01:16",7264.000,"cc",28258.787,6,0.100,6166.000,0.200,1038.000,0.300,54.000,0.500,4.000,1.000,2.000,5.000,0
"05/12/08","07:01:22",13082.000,"cc",28315.297,6,0.100,11188.000,0.200,1785.000,0.300,100.000,0.500,7.000,1.000,2.000,5.000,0
"05/12/08","07:01:28",23593.000,"cc",28344.984,6,0.100,20243.000,0.200,3187.000,0.300,147.000,0.500,16.000,1.000,0,5.000,0
"05/12/08","07:01:34",18968.000,"cc",28315.660,6,0.100,16395.000,0.200,2428.000,0.300,130.000,0.500,13.000,1.000,2.000,5.000,0
"05/12/08","07:01:40",12441.000,"cc",28337.553,6,0.100,10580.000,0.200,1755.000,0.300,95.000,0.500,10.000,1.000,1.000,5.000,0
"05/12/08","07:01:46",11301.000,"cc",28324.688,6,0.100,9660.000,0.200,1528.000,0.300,99.000,0.500,14.000,1.000,0,5.000,0
"05/12/08","07:01:52",9603.000,"cc",28284.199,6,0.100,8270.000,0.200,1262.000,0.300,68.000,0.500,3.000,1.000,0,5.000,0
"05/12/08","07:01:58",9107.000,"cc",28292.488,6,0.100,7845.000,0.200,1184.000,0.300,72.000,0.500,6.000,1.000,0,5.000,0
"05/12/08","07:02:04",9626.000,"cc",28321.891,6,0.100,8254.000,0.200,1284.000,0.300,78.000,0.500,8.000,1.000,2.000,5.000,0
"05/12/08","07:02:10",7795.000,"cc",28259.559,6,0.100,6642.000,0.200,1068.000,0.300,73.000,0.500,12.000,1.000,0,5.000,0
"05/12/08","07:02:16",11683.000,"cc",28316.719,6,0.100,10037.000,0.200,1552.000,0.300,89.000,0.500,5.000,1.000,0,5.000,0
"05/12/08","07:02:22",15295.000,"cc",28354.412,6,0.100,13133.000,0.200,2053.000,0.300,101.000,0.500,8.000,1.000,0,5.000,0
"05/12/08","07:02:28",16924.000,"cc",28377.359,6,0.100,14686.000,0.200,2119.000,0.300,106.000,0.500,12.000,1.000,1.000,5.000,0
"05/12/08","07:02:34",26668.000,"cc",28342.900,6,0.100,23104.000,0.200,3421.000,0.300,137.000,0.500,6.000,1.000,0,5.000,0
"05/12/08","07:02:40",24194.000,"cc",28286.836,6,0.100,20916.000,0.200,3128.000,0.300,139.000,0.500,11.000,1.000,0,5.000,0
"05/12/08","07:02:46",19922.000,"cc",28343.756,6,0.100,17112.000,0.200,2640.000,0.300,158.000,0.500,12.000,1.000,0,5.000,0
"05/12/08","07:02:52",16956.000,"cc",28326.430,6,0.100,14578.000,0.200,2260.000,0.300,106.000,0.500,10.000,1.000,2.000,5.000,0
"05/12/08","07:02:58",12331.000,"cc",28264.303,6,0.100,10603.000,0.200,1623.000,0.300,95.000,0.500,10.000,1.000,0,5.000,0
"05/12/08","07:03:04",11791.000,"cc",28320.213,6,0.100,10116.000,0.200,1591.000,0.300,73.000,0.500,10.000,1.000,1.000,5.000,0
"05/12/08","07:03:10",9970.000,"cc",28289.344,6,0.100,8587.000,0.200,1284.000,0.300,92.000,0.500,7.000,1.000,0,5.000,0
"05/12/08","07:03:16",12168.000,"cc",28335.219,6,0.100,10424.000,0.200,1641.000,0.300,95.000,0.500,7.000,1.000,1.000,5.000,0
"05/12/08","07:03:22",13102.000,"cc",28336.650,6,0.100,11235.000,0.200,1755.000,0.300,103.000,0.500,9.000,1.000,0,5.000,0
"05/12/08","07:03:28",11812.000,"cc",28288.002,6,0.100,10175.000,0.200,1540.000,0.300,85.000,0.500,12.000,1.000,0,5.000,0
"05/12/08","07:03:34",9665.000,"cc",28320.172,6,0.100,8258.000,0.200,1317.000,0.300,81.000,0.500,8.000,1.000,1.000,5.000,0
"05/12/08","07:03:40",11244.000,"cc",28311.830,6,0.100,9677.000,0.200,1481.000,0.300,77.000,0.500,9.000,1.000,0,5.000,0
"05/12/08","07:03:46",9053.000,"cc",28309.066,6,0.100,7750.000,0.200,1224.000,0.300,72.000,0.500,7.000,1.000,0,5.000,0
"05/12/08","07:03:52",6631.000,"cc",28276.219,6,0.100,5643.000,0.200,918.000,0.300,56.000,0.500,14.000,1.000,0,5.000,0
"05/12/08","07:03:58",9054.000,"cc",28374.320,6,0.100,7737.000,0.200,1234.000,0.300,69.000,0.500,14.000,1.000,0,5.000,0
"05/12/08","07:04:04",10101.000,"cc",28308.315,6,0.100,8693.000,0.200,1305.000,0.300,96.000,0.500,7.000,1.000,0,5.000,0
"05/12/08","07:04:10",12539.000,"cc",28318.787,6,0.100,10820.000,0.200,1625.000,0.300,84.000,0.500,10.000,1.000,0,5.000,0
"05/12/08","07:04:16",10409.000,"cc",28284.588,6,0.100,8934.000,0.200,1371.000,0.300,91.000,0.500,11.000,1.000,2.000,5.000,0
"05/12/08","07:04:22",8123.000,"cc",28321.225,6,0.100,6945.000,0.200,1105.000,0.300,69.000,0.500,4.000,1.000,0,5.000,0
"05/12/08","07:04:28",10222.000,"cc",28288.502,6,0.100,8776.000,0.200,1358.000,0.300,79.000,0.500,9.000,1.000,0,5.000,0
"05/12/08","07:04:34",15559.000,"cc",28292.320,6,0.100,13346.000,0.200,2067.000,0.300,133.000,0.500,13.000,1.000,0,5.000,0
"05/12/08","07:04:40",10324.000,"cc",28387.236,6,0.100,8861.000,0.200,1378.000,0.300,79.000,0.500,6.000,1.000,0,5.000,0
"05/12/08","07:04:46",10578.000,"cc",28309.244,6,0.100,9093.000,0.200,1383.000,0.300,91.000,0.500,10.000,1.000,1.000,5.000,0
"05/12/08","07:04:52",12849.000,"cc",28322.213,6,0.100,10980.000,0.200,1775.000,0.300,84.000,0.500,10.000,1.000,0,5.000,0
"05/12/08","07:04:58",14615.000,"cc",28309.443,6,0.100,12562.000,0.200,1938.000,0.300,100.000,0.500,14.000,1.000,1.000,5.000,0
"05/12/08","07:05:04",17831.000,"cc",28276.395,6,0.100,15426.000,0.200,2286.000,0.300,108.000,0.500,11.000,1.000,0,5.000,0
"05/12/08","07:05:10",12170.000,"cc",28314.031,6,0.100,10522.000,0.200,1557.000,0.300,85.000,0.500,6.000,1.000,0,5.000,0
"05/12/08","07:05:16",12857.000,"cc",28276.209,6,0.100,11044.000,0.200,1699.000,0.300,104.000,0.500,10.000,1.000,0,5.000,0
"05/12/08","07:05:22",10986.000,"cc",28299.869,6,0.100,9521.000,0.200,1392.000,0.300,61.000,0.500,12.000,1.000,0,5.000,0
"05/12/08","07:05:28",9510.000,"cc",28381.979,6,0.100,8145.000,0.200,1282.000,0.300,78.000,0.500,4.000,1.000,1.000,5.000,0
"05/12/08","07:05:34",11569.000,"cc",28366.606,6,0.100,9984.000,0.200,1502.000,0.300,70.000,0.500,13.000,1.000,0,5.000,0
"05/12/08","07:05:40",13885.000,"cc",28261.289,6,0.100,11970.000,0.200,1819.000,0.300,87.000,0.500,8.000,1.000,1.000,5.000,0
"05/12/08","07:05:46",17132.000,"cc",28346.781,6,0.100,14897.000,0.200,2127.000,0.300,101.000,0.500,6.000,1.000,1.000,5.000,0
"05/12/08","07:05:52",22100.000,"cc",28281.637,6,0.100,19225.000,0.200,2746.000,0.300,122.000,0.500,7.000,1.000,0,5.000,0
"05/12/08","07:05:58",17527.000,"cc",28334.764,6,0.100,15166.000,0.200,2252.000,0.300,101.000,0.500,7.000,1.000,1.000,5.000,0
"05/12/08","07:06:04",22134.000,"cc",28310.211,6,0.100,19212.000,0.200,2800.000,0.300,113.000,0.500,9.000,1.000,0,5.000,0
"05/12/08","07:06:10",12412.000,"cc",28324.908,6,0.100,10778.000,0.200,1546.000,0.300,78.000,0.500,9.000,1.000,1.000,5.000,0
"05/12/08","07:06:16",14492.000,"cc",28335.299,6,0.100,12612.000,0.200,1782.000,0.300,85.000,0.500,13.000,1.000,0,5.000,0
"05/12/08","07:06:22",14743.000,"cc",28306.654,6,0.100,12754.000,0.200,1879.000,0.300,100.000,0.500,10.000,1.000,0,5.000,0
"05/12/08","07:06:28",10621.000,"cc",28290.098,6,0.100,9113.000,0.200,1427.000,0.300,74.000,0.500,5.000,1.000,2.000,5.000,0
"05/12/08","07:06:34",14613.000,"cc",28332.065,6,0.100,12625.000,0.200,1858.000,0.300,110.000,0.500,18.000,1.000,2.000,5.000,0
"05/12/08","07:06:40",15581.000,"cc",28312.084,6,0.100,13497.000,0.200,1983.000,0.300,93.000,0.500,8.000,1.000,0,5.000,0
"05/12/08","07:06:46",23111.000,"cc",28345.799,6,0.100,20022.000,0.200,2945.000,0.300,132.000,0.500,12.000,1.000,0,5.000,0
"05/12/08","07:06:52",22677.000,"cc",28346.400,6,0.100,19680.000,0.200,2857.000,0.300,128.000,0.500,12.000,1.000,0,5.000,0
"05/12/08","07:06:58",28267.000,"cc",28277.670,6,0.100,24491.000,0.200,3621.000,0.300,141.000,0.500,13.000,1.000,1.000,5.000,0
"05/12/08","07:07:04",20412.000,"cc",28340.076,6,0.100,17816.000,0.200,2481.000,0.300,107.000,0.500,8.000,1.000,0,5.000,0
"05/12/08","07:07:10",22428.000,"cc",28284.486,6,0.100,19545.000,0.200,2751.000,0.300,124.000,0.500,8.000,1.000,0,5.000,0
"05/12/08","07:07:16",16720.000,"cc",28278.699,6,0.100,14573.000,0.200,2044.000,0.300,96.000,0.500,7.000,1.000,0,5.000,0
"05/12/08","07:07:22",15264.000,"cc",28367.506,6,0.100,13191.000,0.200,1958.000,0.300,103.000,0.500,11.000,1.000,1.000,5.000,0
"05/12/08","07:07:28",16245.000,"cc",28286.943,6,0.100,14056.000,0.200,2087.000,0.300,94.000,0.500,8.000,1.000,0,5.000,0
"05/12/08","07:07:34",15855.000,"cc",28278.541,6,0.100,13816.000,0.200,1938.000,0.300,92.000,0.500,9.000,1.000,0,5.000,0
"05/12/08","07:07:40",20096.000,"cc",28338.385,6,0.100,17431.000,0.200,2542.000,0.300,110.000,0.500,12.000,1.000,1.000,5.000,0
"05/12/08","07:07:46",13626.000,"cc",28317.357,6,0.100,11737.000,0.200,1787.000,0.300,94.000,0.500,6.000,1.000,2.000,5.000,0
"05/12/08","07:07:52",15783.000,"cc",28348.951,6,0.100,13732.000,0.200,1947.000,0.300,100.000,0.500,4.000,1.000,0,5.000,0
"05/12/08","07:07:58",13852.000,"cc",28313.141,6,0.100,12020.000,0.200,1739.000,0.300,87.000,0.500,6.000,1.000,0,5.000,0
"05/12/08","07:08:04",15868.000,"cc",28326.854,6,0.100,13800.000,0.200,1970.000,0.300,93.000,0.500,5.000,1.000,0,5.000,0
"05/12/08","07:08:10",12228.000,"cc",28248.594,6,0.100,10619.000,0.200,1524.000,0.300,79.000,0.500,6.000,1.000,0,5.000,0
"05/12/08","07:08:16",11508.000,"cc",28296.981,6,0.100,9889.000,0.200,1536.000,0.300,74.000,0.500,8.000,1.000,1.000,5.000,0
"05/12/08","07:08:22",18943.000,"cc",28348.961,6,0.100,16494.000,0.200,2330.000,0.300,108.000,0.500,11.000,1.000,0,5.000,0
"05/12/08","07:08:28",31348.000,"cc",28332.410,6,0.100,27382.000,0.200,3833.000,0.300,122.000,0.500,10.000,1.000,1.000,5.000,0
"05/12/08","07:08:34",28414.000,"cc",28260.232,6,0.100,24768.000,0.200,3520.000,0.300,120.000,0.500,6.000,1.000,0,5.000,0
"05/12/08","07:08:40",20984.000,"cc",28298.408,6,0.100,18283.000,0.200,2577.000,0.300,119.000,0.500,4.000,1.000,1.000,5.000,0
"05/12/08","07:08:46",43887.000,"cc",28353.504,6,0.100,38101.000,0.200,5536.000,0.300,239.000,0.500,11.000,1.000,0,5.000,0
"05/12/08","07:08:52",28796.000,"cc",28339.322,6,0.100,25061.000,0.200,3567.000,0.300,157.000,0.500,10.000,1.000,1.000,5.000,0
"05/12/08","07:08:58",20578.000,"cc",28334.902,6,0.100,17878.000,0.200,2574.000,0.300,116.000,0.500,10.000,1.000,0,5.000,0
"05/12/08","07:09:04",22045.000,"cc",28292.377,6,0.100,19202.000,0.200,2689.000,0.300,148.000,0.500,6.000,1.000,0,5.000,0
"05/12/08","07:09:10",16069.000,"cc",28345.506,6,0.100,13858.000,0.200,2100.000,0.300,102.000,0.500,9.000,1.000,0,5.000,0
"05/12/08","07:09:16",12437.000,"cc",28359.379,6,0.100,10783.000,0.200,1554.000,0.300,93.000,0.500,7.000,1.000,0,5.000,0
"05/12/08","07:09:22",11508.000,"cc",28343.875,6,0.100,10003.000,0.200,1425.000,0.300,70.000,0.500,10.000,1.000,0,5.000,0
"05/12/08","07:09:28",12450.000,"cc",28358.111,6,0.100,10710.000,0.200,1653.000,0.300,80.000,0.500,7.000,1.000,0,5.000,0
"05/12/08","07:09:34",19406.000,"cc",28240.893,6,0.100,16829.000,0.200,2451.000,0.300,111.000,0.500,15.000,1.000,0,5.000,0
"05/12/08","07:09:40",17119.000,"cc",28238.592,6,0.100,14837.000,0.200,2153.000,0.300,120.000,0.500,8.000,1.000,1.000,5.000,0
"05/12/08","07:09:46",10711.000,"cc",28328.315,6,0.100,9175.000,0.200,1422.000,0.300,97.000,0.500,17.000,1.000,0,5.000,0
"05/12/08","07:09:52",12945.000,"cc",28333.375,6,0.100,11063.000,0.200,1780.000,0.300,95.000,0.500,6.000,1.000,1.000,5.000,0
"05/12/08","07:09:58",12406.000,"cc",28315.336,6,0.100,10622.000,0.200,1690.000,0.300,87.000,0.500,7.000,1.000,0,5.000,0
"05/12/08","07:10:04",11651.000,"cc",28344.518,6,0.100,9949.000,0.200,1587.000,0.300,100.000,0.500,15.000,1.000,0,5.000,0
"05/12/08","07:10:10",9916.000,"cc",28358.277,6,0.100,8476.000,0.200,1341.000,0.300,88.000,0.500,11.000,1.000,0,5.000,0
"05/12/08","07:10:16",11888.000,"cc",28293.682,6,0.100,10246.000,0.200,1536.000,0.300,96.000,0.500,10.000,1.000,0,5.000,0
"05/12/08","07:10:22",11987.000,"cc",28349.717,6,0.100,10278.000,0.200,1596.000,0.300,101.000,0.500,12.000,1.000,0,5.000,0
"05/12/08","07:10:28",9361.000,"cc",28286.006,6,0.100,7920.000,0.200,1348.000,0.300,84.000,0.500,8.000,1.000,1.000,5.000,0
"05/12/08","07:10:34",13141.000,"cc",28347.664,6,0.100,11179.000,0.200,1839.000,0.300,101.000,0.500,20.000,1.000,2.000,5.000,0
"05/12/08","07:10:40",14178.000,"cc",28314.824,6,0.100,12202.000,0.200,1855.000,0.300,113.000,0.500,8.000,1.000,0,5.000,0
"05/12/08","07:10:46",9564.000,"cc",28316.578,6,0.100,8210.000,0.200,1276.000,0.300,77.000,0.500,1.000,1.000,0,5.000,0
"05/12/08","07:10:52",10219.000,"cc",28347.002,6,0.100,8723.000,0.200,1404.000,0.300,85.000,0.500,7.000,1.000,0,5.000,0
"05/12/08","07:10:58",8963.000,"cc",28273.242,6,0.100,7640.000,0.200,1241.000,0.300,79.000,0.500,3.000,1.000,0,5.000,0
"05/12/08","07:11:04",8639.000,"cc",28332.789,6,0.100,7305.000,0.200,1239.000,0.300,88.000,0.500,7.000,1.000,0,5.000,0
"05/12/08","07:11:10",10327.000,"cc",28335.147,6,0.100,8804.000,0.200,1423.000,0.300,92.000,0.500,8.000,1.000,0,5.000,0
"05/12/08","07:11:16",26575.000,"cc",28350.291,6,0.100,22797.000,0.200,3615.000,0.300,156.000,0.500,7.000,1.000,0,5.000,0
"05/12/08","07:11:22",17406.000,"cc",28292.627,6,0.100,14890.000,0.200,2372.000,0.300,135.000,0.500,9.000,1.000,0,5.000,0
"05/12/08","07:11:28",19179.000,"cc",28240.467,6,0.100,16475.000,0.200,2577.000,0.300,121.000,0.500,6.000,1.000,0,5.000,0
"05/12/08","07:11:34",18876.000,"cc",28331.275,6,0.100,16192.000,0.200,2547.000,0.300,129.000,0.500,7.000,1.000,1.000,5.000,0
"05/12/08","07:11:40",10306.000,"cc",28354.248,6,0.100,8726.000,0.200,1472.000,0.300,102.000,0.500,5.000,1.000,1.000,5.000,0
"05/12/08","07:11:46",11879.000,"cc",28321.088,6,0.100,10067.000,0.200,1702.000,0.300,103.000,0.500,7.000,1.000,0,5.000,0
"05/12/08","07:11:52",12322.000,"cc",28302.895,6,0.100,10484.000,0.200,1731.000,0.300,101.000,0.500,5.000,1.000,1.000,5.000,0
"05/12/08","07:11:58",12766.000,"cc",28377.936,6,0.100,10867.000,0.200,1799.000,0.300,89.000,0.500,11.000,1.000,0,5.000,0
"05/12/08","07:12:04",15954.000,"cc",28334.430,6,0.100,13652.000,0.200,2161.000,0.300,130.000,0.500,10.000,1.000,1.000,5.000,0
"05/12/08","07:12:10",16663.000,"cc",28219.678,6,0.100,14181.000,0.200,2316.000,0.300,148.000,0.500,17.000,1.000,1.000,5.000,0
"05/12/08","07:12:16",9156.000,"cc",28342.813,6,0.100,7769.000,0.200,1291.000,0.300,89.000,0.500,7.000,1.000,0,5.000,0
"05/12/08","07:12:22",9339.000,"cc",28329.154,6,0.100,7854.000,0.200,1370.000,0.300,100.000,0.500,14.000,1.000,1.000,5.000,0
"05/12/08","07:12:28",12126.000,"cc",28348.473,6,0.100,10243.000,0.200,1758.000,0.300,113.000,0.500,10.000,1.000,2.000,5.000,0
"05/12/08","07:12:34",17531.000,"cc",28338.695,6,0.100,14956.000,0.200,2435.000,0.300,132.000,0.500,8.000,1.000,0,5.000,0
"05/12/08","07:12:40",18681.000,"cc",28353.227,6,0.100,15961.000,0.200,2578.000,0.300,138.000,0.500,3.000,1.000,1.000,5.000,0
"05/12/08","07:12:46",15571.000,"cc",28265.121,6,0.100,13198.000,0.200,2240.000,0.300,126.000,0.500,6.000,1.000,1.000,5.000,0
"05/12/08","07:12:52",13810.000,"cc",28319.193,6,0.100,11726.000,0.200,1962.000,0.300,114.000,0.500,7.000,1.000,1.000,5.000,0
"05/12/08","07:12:58",11905.000,"cc",28319.691,6,0.100,10038.000,0.200,1749.000,0.300,106.000,0.500,11.000,1.000,1.000,5.000,0
"05/12/08","07:13:04",11063.000,"cc",28324.330,6,0.100,9362.000,0.200,1596.000,0.300,101.000,0.500,4.000,1.000,0,5.000,0
"05/12/08","07:13:10",14542.000,"cc",28319.545,6,0.100,12366.000,0.200,2034.000,0.300,127.000,0.500,14.000,1.000,1.000,5.000,0
"05/12/08","07:13:16",12797.000,"cc",28284.756,6,0.100,10870.000,0.200,1827.000,0.300,93.000,0.500,7.000,1.000,0,5.000,0
"05/12/08","07:13:22",23067.000,"cc",28374.910,6,0.100,19726.000,0.200,3139.000,0.300,181.000,0.500,19.000,1.000,2.000,5.000,0
"05/12/08","07:13:28",25815.000,"cc",28321.127,6,0.100,22089.000,0.200,3530.000,0.300,189.000,0.500,7.000,1.000,0,5.000,0
"05/12/08","07:13:34",32922.000,"cc",28247.867,6,0.100,27976.000,0.200,4646.000,0.300,286.000,0.500,13.000,1.000,1.000,5.000,0
"05/12/08","07:13:40",26904.000,"cc",28305.195,6,0.100,22898.000,0.200,3760.000,0.300,236.000,0.500,8.000,1.000,2.000,5.000,0
"05/12/08","07:13:46",27632.000,"cc",28367.674,6,0.100,23480.000,0.200,3895.000,0.300,253.000,0.500,4.000,1.000,0,5.000,0
"05/12/08","07:13:52",25582.000,"cc",28304.213,6,0.100,21696.000,0.200,3657.000,0.300,220.000,0.500,8.000,1.000,1.000,5.000,0
"05/12/08","07:13:58",33013.000,"cc",28299.404,6,0.100,28007.000,0.200,4681.000,0.300,309.000,0.500,16.000,1.000,0,5.000,0
"05/12/08","07:14:04",21588.000,"cc",28352.877,6,0.100,18243.000,0.200,3138.000,0.300,196.000,0.500,11.000,1.000,0,5.000,0
"05/12/08","07:14:10",20449.000,"cc",28281.006,6,0.100,17330.000,0.200,2913.000,0.300,196.000,0.500,8.000,1.000,2.000,5.000,0
"05/12/08","07:14:16",19860.000,"cc",28275.875,6,0.100,16822.000,0.200,2869.000,0.300,162.000,0.500,7.000,1.000,0,5.000,0
"05/12/08","07:14:22",20225.000,"cc",28356.375,6,0.100,17182.000,0.200,2845.000,0.300,186.000,0.500,12.000,1.000,0,5.000,0
"05/12/08","07:14:28",16969.000,"cc",28317.330,6,0.100,14304.000,0.200,2469.000,0.300,185.000,0.500,10.000,1.000,1.000,5.000,0
"05/12/08","07:14:34",10650.000,"cc",28292.533,6,0.100,8918.000,0.200,1607.000,0.300,114.000,0.500,10.000,1.000,1.000,5.000,0
"05/12/08","07:14:40",8263.000,"cc",28331.840,6,0.100,6877.000,0.200,1271.000,0.300,109.000,0.500,6.000,1.000,0,5.000,0
"05/12/08","07:14:46",6938.000,"cc",28341.209,6,0.100,5754.000,0.200,1083.000,0.300,89.000,0.500,12.000,1.000,0,5.000,0
"05/12/08","07:14:52",7986.000,"cc",28303.475,6,0.100,6647.000,0.200,1219.000,0.300,112.000,0.500,8.000,1.000,0,5.000,0
"05/12/08","07:14:58",5143.000,"cc",28302.330,6,0.100,4263.000,0.200,812.000,0.300,63.000,0.500,5.000,1.000,0,5.000,0
"05/12/08","07:15:04",10078.000,"cc",28313.885,6,0.100,8413.000,0.200,1521.000,0.300,135.000,0.500,9.000,1.000,0,5.000,0
"05/12/08","07:15:10",9106.000,"cc",28321.481,6,0.100,7644.000,0.200,1353.000,0.300,98.000,0.500,11.000,1.000,0,5.000,0
"05/12/08","07:15:16",5076.000,"cc",28307.871,6,0.100,4199.000,0.200,805.000,0.300,65.000,0.500,7.000,1.000,0,5.000,0
"05/12/08","07:15:22",5225.000,"cc",28327.748,6,0.100,4264.000,0.200,869.000,0.300,80.000,0.500,10.000,1.000,2.000,5.000,0
"05/12/08","07:15:28",5057.000,"cc",28313.481,6,0.100,4151.000,0.200,823.000,0.300,79.000,0.500,3.000,1.000,1.000,5.000,0
"05/12/08","07:15:34",4507.000,"cc",28316.059,6,0.100,3681.000,0.200,734.000,0.300,79.000,0.500,11.000,1.000,2.000,5.000,0
"05/12/08","07:15:40",5722.000,"cc",28367.469,6,0.100,4730.000,0.200,889.000,0.300,98.000,0.500,5.000,1.000,0,5.000,0
"05/12/08","07:15:46",4553.000,"cc",28324.801,6,0.100,3728.000,0.200,754.000,0.300,63.000,0.500,7.000,1.000,1.000,5.000,0
"05/12/08","07:15:52",9690.000,"cc",28295.201,6,0.100,8084.000,0.200,1482.000,0.300,119.000,0.500,4.000,1.000,1.000,5.000,0
"05/12/08","07:15:58",14790.000,"cc",28307.822,6,0.100,12391.000,0.200,2213.000,0.300,179.000,0.500,7.000,1.000,0,5.000,0
"05/12/08","07:16:04",9600.000,"cc",28319.926,6,0.100,8017.000,0.200,1464.000,0.300,113.000,0.500,5.000,1.000,1.000,5.000,0
"05/12/08","07:16:10",17886.000,"cc",28336.041,6,0.100,15014.000,0.200,2667.000,0.300,200.000,0.500,5.000,1.000,0,5.000,0
"05/12/08","07:16:16",18799.000,"cc",28328.920,6,0.100,15878.000,0.200,2728.000,0.300,185.000,0.500,7.000,1.000,1.000,5.000,0
"05/12/08","07:16:22",20604.000,"cc",28301.762,6,0.100,17327.000,0.200,3053.000,0.300,213.000,0.500,10.000,1.000,1.000,5.000,0
"05/12/08","07:16:28",29300.000,"cc",28279.813,6,0.100,24617.000,0.200,4344.000,0.300,315.000,0.500,23.000,1.000,1.000,5.000,0
"05/12/08","07:16:34",16847.000,"cc",28361.256,6,0.100,14067.000,0.200,2573.000,0.300,200.000,0.500,6.000,1.000,1.000,5.000,0
"05/12/08","07:16:40",20288.000,"cc",28324.951,6,0.100,17099.000,0.200,2959.000,0.300,224.000,0.500,6.000,1.000,0,5.000,0
"05/12/08","07:16:46",15240.000,"cc",28307.945,6,0.100,12862.000,0.200,2204.000,0.300,167.000,0.500,6.000,1.000,1.000,5.000,0
"05/12/08","07:16:52",8778.000,"cc",28315.768,6,0.100,7297.000,0.200,1381.000,0.300,96.000,0.500,4.000,1.000,0,5.000,0
"05/12/08","07:16:58",10463.000,"cc",28299.356,6,0.100,8629.000,0.200,1669.000,0.300,155.000,0.500,9.000,1.000,1.000,5.000,0
"05/12/08","07:17:04",15485.000,"cc",28328.580,6,0.100,12943.000,0.200,2327.000,0.300,195.000,0.500,18.000,1.000,2.000,5.000,0
"05/12/08","07:17:10",14182.000,"cc",28332.772,6,0.100,11885.000,0.200,2105.000,0.300,182.000,0.500,10.000,1.000,0,5.000,0
"05/12/08","07:17:16",14076.000,"cc",28268.799,6,0.100,11736.000,0.200,2134.000,0.300,192.000,0.500,13.000,1.000,1.000,5.000,0
"05/12/08","07:17:22",10167.000,"cc",28331.859,6,0.100,8520.000,0.200,1513.000,0.300,123.000,0.500,11.000,1.000,0,5.000,0
"05/12/08","07:17:28",11561.000,"cc",28329.873,6,0.100,9676.000,0.200,1704.000,0.300,172.000,0.500,7.000,1.000,2.000,5.000,0
"05/12/08","07:17:34",8868.000,"cc",28324.764,6,0.100,7300.000,0.200,1444.000,0.300,116.000,0.500,8.000,1.000,0,5.000,0
"05/12/08","07:17:40",9951.000,"cc",28363.805,6,0.100,8265.000,0.200,1524.000,0.300,146.000,0.500,15.000,1.000,1.000,5.000,0
"05/12/08","07:17:46",9241.000,"cc",28292.533,6,0.100,7608.000,0.200,1471.000,0.300,151.000,0.500,11.000,1.000,0,5.000,0
"05/12/08","07:17:52",7422.000,"cc",28342.565,6,0.100,6143.000,0.200,1159.000,0.300,110.000,0.500,9.000,1.000,1.000,5.000,0
"05/12/08","07:17:58",6631.000,"cc",28291.195,6,0.100,5458.000,0.200,1056.000,0.300,108.000,0.500,8.000,1.000,1.000,5.000,0
"05/12/08","07:18:04",11169.000,"cc",28319.115,6,0.100,9279.000,0.200,1721.000,0.300,159.000,0.500,10.000,1.000,0,5.000,0
"05/12/08","07:18:10",10675.000,"cc",28268.604,6,0.100,8897.000,0.200,1626.000,0.300,146.000,0.500,6.000,1.000,0,5.000,0
"05/12/08","07:18:16",8134.000,"cc",28302.791,6,0.100,6758.000,0.200,1256.000,0.300,112.000,0.500,8.000,1.000,0,5.000,0